SWA907 MKJS-KBWI

Flight info

Callsign SWA907
Flight time N/A
Altitude 38000
Route ELUTU5 HAWLS DCT EPSIM UM779 ZEUSS/N0456F370 Y329 ZFP/N0453F390 DCT GRUBR Y299 SEELO DCT GARIC DCT ZORDO Q111 RUKRR DCT THHMP RAVNN7
Aircraft B38M/M-SDE1FGHILORVWXY/HB1

Departure

Time N/A
Airport Sangster International Airport (MKJS)

Arrival

Time 2026-04-27 03:42
Airport Baltimore/Washington International Thurgood Marshall Airport (KBWI)
Time Latitude Longitude Altitude Speed Heading
2026-04-27 01:58 28.57520 -78.62108 37993 ft 435 kts 357°
2026-04-27 01:59 28.63564 -78.61873 37992 ft 434 kts 357°
2026-04-27 01:59 28.69594 -78.61639 37994 ft 433 kts 357°
2026-04-27 02:00 28.75615 -78.61405 37995 ft 432 kts 356°
2026-04-27 02:00 28.81618 -78.61172 38019 ft 432 kts 356°
2026-04-27 02:01 28.84625 -78.61055 38249 ft 431 kts 356°
2026-04-27 02:01 28.87621 -78.60938 38470 ft 430 kts 356°
2026-04-27 02:01 28.90609 -78.60822 38697 ft 429 kts 356°
2026-04-27 02:01 28.93549 -78.60707 38896 ft 427 kts 356°
2026-04-27 02:02 28.96515 -78.60591 39012 ft 427 kts 356°
2026-04-27 02:02 28.99519 -78.60474 38992 ft 426 kts 356°
2026-04-27 02:02 29.05372 -78.60245 38986 ft 423 kts 356°
2026-04-27 02:03 29.11257 -78.60015 38989 ft 423 kts 356°
2026-04-27 02:03 29.17123 -78.59785 38990 ft 421 kts 356°
2026-04-27 02:04 29.22977 -78.59555 38989 ft 420 kts 356°
2026-04-27 02:04 29.28815 -78.59326 38991 ft 419 kts 356°
2026-04-27 02:05 29.34629 -78.59098 38990 ft 417 kts 356°
2026-04-27 02:05 29.40413 -78.58870 38989 ft 415 kts 356°
2026-04-27 02:06 29.46177 -78.58643 38994 ft 413 kts 356°
2026-04-27 02:06 29.51918 -78.58417 38992 ft 411 kts 356°
2026-04-27 02:07 29.57624 -78.58192 38987 ft 410 kts 356°
2026-04-27 02:07 29.63333 -78.57966 38987 ft 410 kts 356°
2026-04-27 02:08 29.69046 -78.57740 38988 ft 410 kts 356°
2026-04-27 02:08 29.74747 -78.57514 38989 ft 410 kts 356°
2026-04-27 02:09 29.80444 -78.57288 38991 ft 410 kts 355°
2026-04-27 02:09 29.86145 -78.57062 38986 ft 410 kts 355°
2026-04-27 02:10 29.91841 -78.56836 38989 ft 410 kts 355°
2026-04-27 02:10 29.97551 -78.56608 38987 ft 410 kts 355°
2026-04-27 02:11 30.03260 -78.56381 38992 ft 411 kts 355°
2026-04-27 02:11 30.08941 -78.56154 38991 ft 411 kts 355°
2026-04-27 02:12 30.14696 -78.55891 38982 ft 414 kts 360°
2026-04-27 02:12 30.20398 -78.55028 38987 ft 416 kts 360°
2026-04-27 02:13 30.26145 -78.54227 38992 ft 416 kts 359°
2026-04-27 02:13 30.31896 -78.53438 38986 ft 416 kts 359°
2026-04-27 02:14 30.37641 -78.52650 38988 ft 416 kts 359°
2026-04-27 02:14 30.43384 -78.51801 38989 ft 417 kts
2026-04-27 02:15 30.49132 -78.50862 38990 ft 417 kts
2026-04-27 02:15 30.54881 -78.49932 38993 ft 418 kts
2026-04-27 02:16 30.60637 -78.49000 38993 ft 418 kts
2026-04-27 02:16 30.66411 -78.48064 38995 ft 419 kts
2026-04-27 02:17 30.72150 -78.47133 38991 ft 419 kts
2026-04-27 02:17 30.77929 -78.46193 38992 ft 420 kts
2026-04-27 02:18 30.83717 -78.45252 38990 ft 420 kts
2026-04-27 02:18 30.89520 -78.44307 38989 ft 421 kts
2026-04-27 02:19 30.95332 -78.43359 38993 ft 422 kts
2026-04-27 02:19 31.01154 -78.42408 38995 ft 423 kts
2026-04-27 02:20 31.06991 -78.41454 38993 ft 424 kts
2026-04-27 02:20 31.12834 -78.40497 38995 ft 424 kts
2026-04-27 02:21 31.17701 -78.39700 38997 ft 425 kts
2026-04-27 02:21 31.23567 -78.38738 38995 ft 426 kts
2026-04-27 02:22 31.29437 -78.37773 38999 ft 426 kts
2026-04-27 02:22 31.35316 -78.36807 39000 ft 427 kts
2026-04-27 02:23 31.41201 -78.35837 39005 ft 428 kts
2026-04-27 02:23 31.47100 -78.34865 39006 ft 428 kts
2026-04-27 02:24 31.53002 -78.33890 39006 ft 429 kts
2026-04-27 02:24 31.58910 -78.32914 39009 ft 429 kts
2026-04-27 02:25 31.64828 -78.31934 39010 ft 430 kts
2026-04-27 02:25 31.70757 -78.30952 39008 ft 430 kts
2026-04-27 02:26 31.76687 -78.29967 39016 ft 431 kts
2026-04-27 02:26 31.82591 -78.28987 39009 ft 431 kts
2026-04-27 02:27 31.88539 -78.27997 39013 ft 432 kts
2026-04-27 02:27 31.94492 -78.27006 39016 ft 432 kts
2026-04-27 02:28 32.00456 -78.26011 39020 ft 433 kts
2026-04-27 02:28 32.06424 -78.25133 39024 ft 433 kts 360°
2026-04-27 02:29 32.12404 -78.24263 39026 ft 433 kts
2026-04-27 02:29 32.18398 -78.23387 39027 ft 434 kts
2026-04-27 02:30 32.24399 -78.22509 39030 ft 435 kts
2026-04-27 02:30 32.30406 -78.21629 39032 ft 435 kts
2026-04-27 02:31 32.36412 -78.20747 39033 ft 435 kts
2026-04-27 02:31 32.42419 -78.19865 39036 ft 435 kts
2026-04-27 02:32 32.48425 -78.18981 39044 ft 435 kts
2026-04-27 02:32 32.54446 -78.18094 39049 ft 435 kts
2026-04-27 02:33 32.60451 -78.17208 39046 ft 435 kts
2026-04-27 02:33 32.66456 -78.16321 39047 ft 434 kts
2026-04-27 02:34 32.72449 -78.15435 39053 ft 434 kts
2026-04-27 02:34 32.78440 -78.14547 39054 ft 434 kts
2026-04-27 02:35 32.84425 -78.13659 39063 ft 433 kts
2026-04-27 02:35 32.90408 -78.12771 39063 ft 433 kts
2026-04-27 02:36 32.96347 -78.11888 39067 ft 433 kts
2026-04-27 02:36 33.02326 -78.10997 39065 ft 433 kts
2026-04-27 02:37 33.08307 -78.10105 39068 ft 432 kts
2026-04-27 02:37 33.14280 -78.09213 39068 ft 432 kts
2026-04-27 02:38 33.20252 -78.08320 39073 ft 432 kts
2026-04-27 02:38 33.26223 -78.07425 39075 ft 432 kts
2026-04-27 02:39 33.32199 -78.06529 39079 ft 433 kts
2026-04-27 02:39 33.38171 -78.05633 39078 ft 433 kts
2026-04-27 02:40 33.44151 -78.04733 39083 ft 433 kts
2026-04-27 02:40 33.50128 -78.03833 39085 ft 433 kts
2026-04-27 02:41 33.55714 -78.02991 39091 ft 433 kts
2026-04-27 02:41 33.61653 -78.02094 39091 ft 433 kts
2026-04-27 02:42 33.67680 -78.01183 39101 ft 433 kts
2026-04-27 02:42 33.73622 -78.00283 39114 ft 434 kts
2026-04-27 02:43 33.79327 -77.99419 39118 ft 434 kts
2026-04-27 02:43 33.84877 -77.98577 39120 ft 434 kts
2026-04-27 02:44 33.90863 -77.97563 39121 ft 435 kts
2026-04-27 02:44 33.96851 -77.96431 39125 ft 436 kts
2026-04-27 02:45 34.02841 -77.95310 39120 ft 436 kts
2026-04-27 02:45 34.08830 -77.94188 39121 ft 436 kts
2026-04-27 02:46 34.14826 -77.93064 39139 ft 436 kts
2026-04-27 02:46 34.20815 -77.91940 39142 ft 436 kts
2026-04-27 02:47 34.26807 -77.90813 39141 ft 436 kts
2026-04-27 02:47 34.32801 -77.89685 39142 ft 436 kts
2026-04-27 02:48 34.38754 -77.88563 39139 ft 436 kts
2026-04-27 02:48 34.44748 -77.87431 39137 ft 436 kts
2026-04-27 02:49 34.50682 -77.86309 38498 ft 429 kts
2026-04-27 02:49 34.53639 -77.85749 37793 ft 430 kts
2026-04-27 02:49 34.56593 -77.85188 37254 ft 427 kts
2026-04-27 02:50 34.62464 -77.84076 37161 ft 430 kts
2026-04-27 02:50 34.68426 -77.82944 37164 ft 435 kts
2026-04-27 02:51 34.74414 -77.81805 37165 ft 437 kts
2026-04-27 02:51 34.80487 -77.80648 37159 ft 444 kts
2026-04-27 02:52 34.86595 -77.79483 37161 ft 444 kts
2026-04-27 02:52 34.92698 -77.78317 37167 ft 444 kts
2026-04-27 02:53 34.98797 -77.77150 37177 ft 443 kts
2026-04-27 02:53 35.04888 -77.75983 37177 ft 443 kts
2026-04-27 02:54 35.10939 -77.74822 37170 ft 443 kts
2026-04-27 02:54 35.17021 -77.73653 37169 ft 442 kts
2026-04-27 02:55 35.23100 -77.72483 37174 ft 442 kts
2026-04-27 02:55 35.29180 -77.71311 37177 ft 442 kts
2026-04-27 02:56 35.35252 -77.70138 37178 ft 442 kts
2026-04-27 02:56 35.41327 -77.68964 37176 ft 441 kts
2026-04-27 02:57 35.47390 -77.67790 37175 ft 441 kts
2026-04-27 02:57 35.53453 -77.66613 37175 ft 441 kts
2026-04-27 02:58 35.59516 -77.65436 37179 ft 440 kts
2026-04-27 02:58 35.65548 -77.64262 37181 ft 440 kts
2026-04-27 02:59 35.71602 -77.63083 37181 ft 440 kts
2026-04-27 02:59 35.77645 -77.61903 37203 ft 440 kts
2026-04-27 03:00 35.83694 -77.60721 37210 ft 440 kts
2026-04-27 03:00 35.89736 -77.59538 37211 ft 439 kts
2026-04-27 03:01 35.95774 -77.58355 37215 ft 439 kts
2026-04-27 03:01 36.01799 -77.57171 37209 ft 439 kts
2026-04-27 03:02 36.07834 -77.55985 37212 ft 438 kts
2026-04-27 03:02 36.13861 -77.54797 37203 ft 438 kts
2026-04-27 03:03 36.22886 -77.53016 37221 ft 438 kts
2026-04-27 03:04 36.28861 -77.51835 37220 ft 438 kts
2026-04-27 03:04 36.34873 -77.50644 37224 ft 437 kts
2026-04-27 03:05 36.40886 -77.49452 37221 ft 437 kts
2026-04-27 03:05 36.46897 -77.48257 37220 ft 437 kts
2026-04-27 03:06 36.52900 -77.47063 37239 ft 437 kts
2026-04-27 03:06 36.58901 -77.45867 37249 ft 437 kts
2026-04-27 03:07 36.64904 -77.44669 37248 ft 437 kts
2026-04-27 03:07 36.70863 -77.43477 37251 ft 436 kts
2026-04-27 03:08 36.76860 -77.42277 37249 ft 436 kts
2026-04-27 03:08 36.82857 -77.41074 37242 ft 436 kts
2026-04-27 03:09 36.87881 -77.40065 37235 ft 436 kts
2026-04-27 03:09 36.93871 -77.38860 37227 ft 436 kts
2026-04-27 03:10 36.99815 -77.37662 37238 ft 436 kts
2026-04-27 03:10 37.05801 -77.36455 37222 ft 436 kts
2026-04-27 03:11 37.11783 -77.35246 37227 ft 435 kts
2026-04-27 03:11 37.17765 -77.34035 37241 ft 435 kts
2026-04-27 03:12 37.23632 -77.32845 37245 ft 435 kts
2026-04-27 03:12 37.29590 -77.31635 36922 ft 430 kts
2026-04-27 03:12 37.32539 -77.31035 36346 ft 428 kts
2026-04-27 03:13 37.35467 -77.30439 35821 ft 425 kts
2026-04-27 03:13 37.38390 -77.29844 35172 ft 425 kts
2026-04-27 03:13 37.41315 -77.29247 34479 ft 427 kts
2026-04-27 03:13 37.44251 -77.28649 33710 ft 429 kts
2026-04-27 03:14 37.47198 -77.28048 32965 ft 429 kts
2026-04-27 03:14 37.50138 -77.27447 32290 ft 427 kts
2026-04-27 03:14 37.53073 -77.26847 31601 ft 427 kts
2026-04-27 03:14 37.55996 -77.26249 30995 ft 423 kts
2026-04-27 03:15 37.58905 -77.25654 30482 ft 425 kts
2026-04-27 03:15 37.61796 -77.25061 29889 ft 427 kts
2026-04-27 03:15 37.64721 -77.24461 29324 ft 425 kts
2026-04-27 03:15 37.67630 -77.23864 28808 ft 422 kts
2026-04-27 03:16 37.70519 -77.23271 28296 ft 419 kts
2026-04-27 03:16 37.73389 -77.22680 27777 ft 416 kts
2026-04-27 03:16 37.76227 -77.22097 27264 ft 412 kts
2026-04-27 03:16 37.79055 -77.21514 26750 ft 409 kts
2026-04-27 03:17 37.81856 -77.20937 26243 ft 407 kts
2026-04-27 03:17 37.84643 -77.20362 25738 ft 404 kts
2026-04-27 03:17 37.87407 -77.19792 25238 ft 401 kts
2026-04-27 03:17 37.90151 -77.19225 24747 ft 399 kts
2026-04-27 03:18 37.92893 -77.18659 24253 ft 396 kts
2026-04-27 03:18 37.95606 -77.18098 23757 ft 394 kts
2026-04-27 03:18 37.98302 -77.17540 23199 ft 391 kts
2026-04-27 03:18 38.00985 -77.16984 22700 ft 389 kts
2026-04-27 03:19 38.03650 -77.16432 22221 ft 386 kts
2026-04-27 03:19 38.06258 -77.15891 21766 ft 384 kts
2026-04-27 03:19 38.08886 -77.15345 21301 ft 381 kts
2026-04-27 03:19 38.11496 -77.14803 20849 ft 379 kts
2026-04-27 03:20 38.14084 -77.14265 20399 ft 376 kts
2026-04-27 03:20 38.16664 -77.13728 19960 ft 374 kts
2026-04-27 03:20 38.19222 -77.13196 19524 ft 371 kts
2026-04-27 03:20 38.21766 -77.12665 19093 ft 369 kts
2026-04-27 03:21 38.24290 -77.12139 18664 ft 367 kts
2026-04-27 03:21 38.26811 -77.11613 18059 ft 367 kts
2026-04-27 03:21 38.29330 -77.11086 17541 ft 366 kts
2026-04-27 03:21 38.31814 -77.10568 17329 ft 356 kts
2026-04-27 03:22 38.34226 -77.10063 17129 ft 346 kts
2026-04-27 03:22 38.36554 -77.09289 16551 ft 351 kts 23°
2026-04-27 03:22 38.38634 -77.07640 16109 ft 351 kts 31°
2026-04-27 03:22 38.40653 -77.05899 15639 ft 351 kts 31°
2026-04-27 03:23 38.42666 -77.04140 15152 ft 351 kts 32°
2026-04-27 03:23 38.44673 -77.02369 14646 ft 351 kts 32°
2026-04-27 03:23 38.46678 -77.00589 14143 ft 351 kts 32°
2026-04-27 03:23 38.48684 -76.98805 13574 ft 352 kts 32°
2026-04-27 03:24 38.50682 -76.97024 13053 ft 349 kts 32°
2026-04-27 03:24 38.52659 -76.95260 12538 ft 343 kts 32°
2026-04-27 03:24 38.54598 -76.93528 12051 ft 338 kts 33°
2026-04-27 03:24 38.56342 -76.91547 11670 ft 331 kts 41°
2026-04-27 03:25 38.57968 -76.89550 11370 ft 318 kts 40°
2026-04-27 03:25 38.59541 -76.87648 11084 ft 305 kts 40°
2026-04-27 03:25 38.61064 -76.85824 10781 ft 294 kts 40°
2026-04-27 03:25 38.62519 -76.84089 10517 ft 285 kts 39°
2026-04-27 03:26 38.63944 -76.82396 10250 ft 275 kts 39°
2026-04-27 03:26 38.65337 -76.80740 9953 ft 272 kts 39°
2026-04-27 03:26 38.66716 -76.79103 9663 ft 268 kts 39°
2026-04-27 03:26 38.68075 -76.77489 9388 ft 265 kts 40°
2026-04-27 03:27 38.69418 -76.75893 9127 ft 261 kts 40°
2026-04-27 03:27 38.70661 -76.74228 8894 ft 259 kts 53°
2026-04-27 03:27 38.71562 -76.72221 8584 ft 259 kts 57°
2026-04-27 03:27 38.72438 -76.70220 8308 ft 256 kts 57°
2026-04-27 03:28 38.73304 -76.68237 8035 ft 254 kts 58°
2026-04-27 03:28 38.74162 -76.66268 7755 ft 252 kts 58°
2026-04-27 03:28 38.75110 -76.64420 7600 ft 242 kts 44°
2026-04-27 03:28 38.76431 -76.63229 7591 ft 227 kts 23°
2026-04-27 03:29 38.77961 -76.62696 7594 ft 236 kts
2026-04-27 03:29 38.79623 -76.62416 7592 ft 244 kts
2026-04-27 03:29 38.81329 -76.62107 7592 ft 249 kts
2026-04-27 03:29 38.83045 -76.61790 7593 ft 250 kts
2026-04-27 03:30 38.84763 -76.61468 7591 ft 250 kts
2026-04-27 03:30 38.86459 -76.61148 7550 ft 250 kts
2026-04-27 03:30 38.88180 -76.60821 7482 ft 249 kts
2026-04-27 03:30 38.89899 -76.60494 7415 ft 249 kts
2026-04-27 03:31 38.91613 -76.60168 7376 ft 249 kts
2026-04-27 03:31 38.93332 -76.59841 7307 ft 249 kts
2026-04-27 03:31 38.95053 -76.59570 7238 ft 250 kts
2026-04-27 03:31 38.96727 -76.60128 7177 ft 254 kts 333°
2026-04-27 03:32 38.98041 -76.61668 7134 ft 262 kts 308°
2026-04-27 03:32 38.98971 -76.63672 7049 ft 257 kts 304°
2026-04-27 03:32 38.99858 -76.65623 6936 ft 248 kts 304°
2026-04-27 03:32 39.00707 -76.67506 6854 ft 240 kts 304°
2026-04-27 03:33 39.01542 -76.69364 6690 ft 240 kts 304°
2026-04-27 03:33 39.02377 -76.71230 6475 ft 241 kts 304°
2026-04-27 03:33 39.03211 -76.73093 6208 ft 241 kts 304°
2026-04-27 03:33 39.04052 -76.74971 5912 ft 243 kts 303°
2026-04-27 03:34 39.04892 -76.76849 5645 ft 242 kts 303°
2026-04-27 03:34 39.05731 -76.78726 5395 ft 242 kts 304°
2026-04-27 03:34 39.06570 -76.80605 5139 ft 242 kts 304°
2026-04-27 03:34 39.07404 -76.82486 4863 ft 243 kts 301°
2026-04-27 03:35 39.08033 -76.84516 4577 ft 245 kts 292°
2026-04-27 03:35 39.08576 -76.86575 4415 ft 238 kts 296°
2026-04-27 03:35 39.09492 -76.88249 4226 ft 224 kts 326°
2026-04-27 03:35 39.10823 -76.89113 4083 ft 207 kts 351°
2026-04-27 03:36 39.12196 -76.89339 3992 ft 194 kts 359°
2026-04-27 03:36 39.13498 -76.89529 3865 ft 188 kts 358°
2026-04-27 03:36 39.14789 -76.89731 3720 ft 186 kts 357°
2026-04-27 03:36 39.16075 -76.89930 3585 ft 185 kts
2026-04-27 03:37 39.17287 -76.89561 3334 ft 177 kts 36°
2026-04-27 03:37 39.18012 -76.88404 3136 ft 163 kts 69°
2026-04-27 03:37 39.18286 -76.86985 2958 ft 166 kts 79°
2026-04-27 03:37 39.18362 -76.85499 2748 ft 164 kts 88°
2026-04-27 03:38 39.18323 -76.84091 2578 ft 149 kts 91°
2026-04-27 03:38 39.18257 -76.82775 2408 ft 146 kts 92°
2026-04-27 03:38 39.18184 -76.81475 2194 ft 145 kts 92°
2026-04-27 03:38 39.18111 -76.80174 1989 ft 146 kts 92°
2026-04-27 03:39 39.18037 -76.78869 1748 ft 146 kts 93°
2026-04-27 03:39 39.17964 -76.77575 1543 ft 144 kts 93°
2026-04-27 03:39 39.17890 -76.76284 1345 ft 144 kts 93°
2026-04-27 03:39 39.17817 -76.74995 1143 ft 144 kts 93°
2026-04-27 03:40 39.17743 -76.73702 945 ft 144 kts 94°
2026-04-27 03:40 39.17703 -76.72994 832 ft 145 kts 94°
2026-04-27 03:40 39.17649 -76.71916 661 ft 145 kts 94°
2026-04-27 03:40 39.17568 -76.70613 466 ft 146 kts 94°
2026-04-27 03:41 39.17494 -76.69323 283 ft 147 kts 94°
2026-04-27 03:41 39.17424 -76.68035 156 ft 136 kts 94°
2026-04-27 03:41 39.17364 -76.66999 154 ft 86 kts 94°
2026-04-27 03:41 39.17334 -76.66465 154 ft 51 kts 94°
2026-04-27 03:42 39.17315 -76.66109 149 ft 25 kts 94°
2026-04-27 03:42 39.17314 -76.65942 147 ft 12 kts 73°
2026-04-27 03:42 39.17381 -76.65896 147 ft 12 kts
2026-04-27 03:42 39.17442 -76.65956 149 ft 12 kts 279°
2026-04-27 03:43 39.17447 -76.66070 151 ft 13 kts 274°
2026-04-27 03:43 39.17457 -76.66203 152 ft 17 kts 275°
2026-04-27 03:43 39.17514 -76.66351 154 ft 19 kts 302°
2026-04-27 03:43 39.17576 -76.66487 157 ft 14 kts 281°
2026-04-27 03:44 39.17524 -76.66574 157 ft 12 kts 237°
2026-04-27 03:44 39.17522 -76.66683 157 ft 13 kts 274°
2026-04-27 03:44 39.17547 -76.66777 158 ft 11 kts 323°
2026-04-27 03:44 39.17601 -76.66847 159 ft 7 kts 313°
2026-04-27 03:45 39.17614 -76.66865 159 ft 0 kts 313°